Location: Joplin, MO
(37.0842°N, 94.5133°W)
Time: 11:03:49
(UTC+02:00)

Transit 2A - Pass Details

Date: 05 April 2023
Orbit: 591 x 964 km, 66.7° (Epoch: 03 June)

Event Time Altitude Azimuth Distance (km) Brightness Sun altitude
Exits shadow 10:38:26 35° 21° (NNE) 1,360 7.6 -36.3°
Drops below altitude 10° 10:41:51 10° 26° (NNE) 2,570 9.4 -35.8°
Sets 10:44:29 0° 27° (NNE) 3,559 10.4 -35.4°
